User: anonymous   Login
Location: Edinburgh
(55.9500°N, 3.1600°W)
Time: 22:18:22
(UTC+01:00)
Language:

N. Korean satellite - Orbit

View from above orbital plane
View from above orbital plane
View from above satellite
View from above satellite

Ground track
Ground track

The orbit data is extracted from the following two-line orbital elements,

1 39026U 12072A   18111.13200592  .00001715  00000-0  66847-4 0  9995
2 39026  97.2128 123.4397 0039910 163.1004 197.1575 15.26561111296952
Epoch (UTC): 21 April 2018 03:10:05
Eccentricity: 0.0039910
inclination: 97.2128°
perigee height: 459 km
apogee height: 513 km
right ascension of ascending node: 123.4397°
argument of perigee: 163.1004°
revolutions per day: 15.26561111
mean anomaly at epoch: 197.1575°
orbit number at epoch: 29695

The dashed part of the orbit path shows where the satellite is in the earth's shadow,  

DLR